Location: Unspecified
(0.0000°N, 0.0000°E)
Time: 17:59:57
(UTC+00:00)

Vanguard 1 - Pass Details

Date: 17 April 2026
Orbit: 654 x 3817 km, 34.2° (Epoch: 18 May)

Event Time Altitude Azimuth Distance (km) Brightness Sun altitude
Rises 20:11:00 0° 241° (WSW) 5,716 14.6 -32.2°
Reaches altitude 10° 20:14:08 10° 244° (WSW) 5,047 14.2 -33.0°
Maximum altitude 20:30:25 69° 324° (NW) 3,546 12.7 -37.0°
Drops below altitude 10° 20:53:58 10° 45° (NE) 6,867 14.1 -42.7°
Sets 20:59:13 0° 48° (NE) 7,767 14.4 -43.9°
